iso_date,epoch_date,Year,Hour,Min,DOY,POS_DOY,Lat,Lon,BP,Ts,Ta,has_bp,has_ts,has_ta,BuoyID,Buoy_Type,Buoy_Owner,Logistics,Hemisphere
2019-11-18T06:00:00Z,1574056800,2019,6,0,322.25,322.25,61.565,-69.586,1001.2,-0.77,-999.0,yes,yes,no,300234065715140,BD2GHI,AOML,CCGS_HENRY_LARSEN,North
2019-11-18T07:00:02Z,1574060403,2019,7,0,322.2917,322.2917,61.565,-69.573,1001.4,-0.76,-999.0,yes,yes,no,300234065715140,BD2GHI,AOML,CCGS_HENRY_LARSEN,North
2019-11-18T07:59:57Z,1574063997,2019,8,0,322.3333,322.3333,61.56,-69.553,1001.9,-0.76,-999.0,yes,yes,no,300234065715140,BD2GHI,AOML,CCGS_HENRY_LARSEN,North
2019-11-18T09:00:00Z,1574067600,2019,9,0,322.375,322.375,61.555,-69.528,1002.5,-0.66,-999.0,yes,yes,no,300234065715140,BD2GHI,AOML,CCGS_HENRY_LARSEN,North
2019-11-18T10:00:02Z,1574071203,2019,10,0,322.4167,322.4167,61.546,-69.504,1003.2,-0.57,-999.0,yes,yes,no,300234065715140,BD2GHI,AOML,CCGS_HENRY_LARSEN,North
2019-11-18T10:59:57Z,1574074797,2019,11,0,322.4583,322.4583,61.537,-69.485,1003.9,-0.4,-999.0,yes,yes,no,300234065715140,BD2GHI,AOML,CCGS_HENRY_LARSEN,North
2019-11-18T12:00:00Z,1574078400,2019,12,0,322.5,322.5,61.529,-69.47,1004.5,-0.37,-999.0,yes,yes,no,300234065715140,BD2GHI,AOML,CCGS_HENRY_LARSEN,North
2019-11-18T13:00:02Z,1574082003,2019,13,0,322.5417,322.5417,61.523,-69.461,1005.1,-0.37,-999.0,yes,yes,no,300234065715140,BD2GHI,AOML,CCGS_HENRY_LARSEN,North
2019-11-18T13:59:57Z,1574085597,2019,14,0,322.5833,322.5833,61.52,-69.457,1005.7,-0.31,-999.0,yes,yes,no,300234065715140,BD2GHI,AOML,CCGS_HENRY_LARSEN,North
2019-11-18T15:00:00Z,1574089200,2019,15,0,322.625,322.625,61.52,-69.461,1005.7,-0.25,-999.0,yes,yes,no,300234065715140,BD2GHI,AOML,CCGS_HENRY_LARSEN,North
2019-11-18T16:00:02Z,1574092803,2019,16,0,322.6667,322.6667,61.521,-69.466,1006.2,-0.25,-999.0,yes,yes,no,300234065715140,BD2GHI,AOML,CCGS_HENRY_LARSEN,North
2019-11-18T16:59:57Z,1574096397,2019,17,0,322.7083,322.7083,61.523,-69.47,1006.5,-0.26,-999.0,yes,yes,no,300234065715140,BD2GHI,AOML,CCGS_HENRY_LARSEN,North
2019-11-18T18:00:00Z,1574100000,2019,18,0,322.75,322.75,61.526,-69.468,1007.1,-0.27,-999.0,yes,yes,no,300234065715140,BD2GHI,AOML,CCGS_HENRY_LARSEN,North
2019-11-18T19:00:02Z,1574103603,2019,19,0,322.7917,322.7917,61.527,-69.465,1007.9,-0.27,-999.0,yes,yes,no,300234065715140,BD2GHI,AOML,CCGS_HENRY_LARSEN,North
2019-11-18T20:01:58Z,1574107318,2019,20,2,322.8347,322.8347,61.524,-69.457,1008.6,-0.41,-999.0,yes,yes,no,300234065715140,BD2GHI,AOML,CCGS_HENRY_LARSEN,North
2019-11-18T21:00:00Z,1574110800,2019,21,0,322.875,322.875,61.52,-69.444,1009.5,-0.42,-999.0,yes,yes,no,300234065715140,BD2GHI,AOML,CCGS_HENRY_LARSEN,North
2019-11-18T22:00:02Z,1574114403,2019,22,0,322.9167,322.9167,61.514,-69.426,1009.9,-0.41,-999.0,yes,yes,no,300234065715140,BD2GHI,AOML,CCGS_HENRY_LARSEN,North
2019-11-18T22:59:57Z,1574117997,2019,23,0,322.9583,322.9583,61.506,-69.407,1010.5,-0.37,-999.0,yes,yes,no,300234065715140,BD2GHI,AOML,CCGS_HENRY_LARSEN,North
2019-11-19T00:00:00Z,1574121600,2019,0,0,323.0,323.0,61.499,-69.393,1011.0,-0.4,-999.0,yes,yes,no,300234065715140,BD2GHI,AOML,CCGS_HENRY_LARSEN,North
2019-11-19T01:00:02Z,1574125203,2019,1,0,323.0417,323.0417,61.493,-69.383,1011.1,-0.51,-999.0,yes,yes,no,300234065715140,BD2GHI,AOML,CCGS_HENRY_LARSEN,North
2019-11-19T01:59:57Z,1574128797,2019,2,0,323.0833,323.0833,61.491,-69.378,1011.1,-0.6,-999.0,yes,yes,no,300234065715140,BD2GHI,AOML,CCGS_HENRY_LARSEN,North
2019-11-19T03:00:00Z,1574132400,2019,3,0,323.125,323.125,61.49,-69.377,1011.1,-0.61,-999.0,yes,yes,no,300234065715140,BD2GHI,AOML,CCGS_HENRY_LARSEN,North
2019-11-19T04:03:04Z,1574136184,2019,4,3,323.1688,323.1688,61.489,-69.378,1011.6,-0.38,-999.0,yes,yes,no,300234065715140,BD2GHI,AOML,CCGS_HENRY_LARSEN,North
2019-11-19T04:59:57Z,1574139597,2019,5,0,323.2083,323.2083,61.49,-69.383,1011.8,-0.44,-999.0,yes,yes,no,300234065715140,BD2GHI,AOML,CCGS_HENRY_LARSEN,North
2019-11-19T06:00:00Z,1574143200,2019,6,0,323.25,323.25,61.491,-69.388,1012.1,-0.48,-999.0,yes,yes,no,300234065715140,BD2GHI,AOML,CCGS_HENRY_LARSEN,North
2019-11-19T07:00:02Z,1574146803,2019,7,0,323.2917,323.2917,61.492,-69.388,1012.8,-0.55,-999.0,yes,yes,no,300234065715140,BD2GHI,AOML,CCGS_HENRY_LARSEN,North
2019-11-19T07:59:57Z,1574150397,2019,8,0,323.3333,323.3333,61.486,-69.381,1013.5,-0.58,-999.0,yes,yes,no,300234065715140,BD2GHI,AOML,CCGS_HENRY_LARSEN,North
2019-11-19T09:00:00Z,1574154000,2019,9,0,323.375,323.375,61.483,-69.372,1014.0,-0.6,-999.0,yes,yes,no,300234065715140,BD2GHI,AOML,CCGS_HENRY_LARSEN,North
2019-11-19T10:00:02Z,1574157603,2019,10,0,323.4167,323.4167,61.479,-69.361,1014.6,-0.65,-999.0,yes,yes,no,300234065715140,BD2GHI,AOML,CCGS_HENRY_LARSEN,North
2019-11-19T10:59:57Z,1574161197,2019,11,0,323.4583,323.4583,61.472,-69.346,1014.8,-0.62,-999.0,yes,yes,no,300234065715140,BD2GHI,AOML,CCGS_HENRY_LARSEN,North
2019-11-19T12:00:00Z,1574164800,2019,12,0,323.5,323.5,61.463,-69.329,1015.6,-0.68,-999.0,yes,yes,no,300234065715140,BD2GHI,AOML,CCGS_HENRY_LARSEN,North
2019-11-19T13:00:02Z,1574168403,2019,13,0,323.5417,323.5417,61.456,-69.315,1016.1,-0.71,-999.0,yes,yes,no,300234065715140,BD2GHI,AOML,CCGS_HENRY_LARSEN,North
2019-11-19T13:59:57Z,1574171997,2019,14,0,323.5833,323.5833,61.449,-69.314,1016.2,-0.73,-999.0,yes,yes,no,300234065715140,BD2GHI,AOML,CCGS_HENRY_LARSEN,North
2019-11-19T15:00:00Z,1574175600,2019,15,0,323.625,323.625,61.444,-69.317,1016.6,-0.74,-999.0,yes,yes,no,300234065715140,BD2GHI,AOML,CCGS_HENRY_LARSEN,North
2019-11-19T16:00:02Z,1574179203,2019,16,0,323.6667,323.6667,61.442,-69.323,1017.1,-0.73,-999.0,yes,yes,no,300234065715140,BD2GHI,AOML,CCGS_HENRY_LARSEN,North
2019-11-19T16:59:57Z,1574182797,2019,17,0,323.7083,323.7083,61.439,-69.33,1017.6,-0.73,-999.0,yes,yes,no,300234065715140,BD2GHI,AOML,CCGS_HENRY_LARSEN,North
2019-11-19T18:00:00Z,1574186400,2019,18,0,323.75,323.75,61.435,-69.336,1018.4,-0.71,-999.0,yes,yes,no,300234065715140,BD2GHI,AOML,CCGS_HENRY_LARSEN,North
2019-11-19T19:00:02Z,1574190003,2019,19,0,323.7917,323.7917,61.439,-69.345,1019.1,-0.54,-999.0,yes,yes,no,300234065715140,BD2GHI,AOML,CCGS_HENRY_LARSEN,North
2019-11-19T19:59:57Z,1574193597,2019,20,0,323.8333,323.8333,61.438,-69.351,1019.9,-0.71,-999.0,yes,yes,no,300234065715140,BD2GHI,AOML,CCGS_HENRY_LARSEN,North
2019-11-19T21:00:00Z,1574197200,2019,21,0,323.875,323.875,61.438,-69.343,1020.9,-0.76,-999.0,yes,yes,no,300234065715140,BD2GHI,AOML,CCGS_HENRY_LARSEN,North
2019-11-19T22:00:02Z,1574200803,2019,22,0,323.9167,323.9167,61.435,-69.328,1021.5,-0.72,-999.0,yes,yes,no,300234065715140,BD2GHI,AOML,CCGS_HENRY_LARSEN,North
2019-11-19T22:59:57Z,1574204397,2019,23,0,323.9583,323.9583,61.427,-69.307,1022.3,-0.68,-999.0,yes,yes,no,300234065715140,BD2GHI,AOML,CCGS_HENRY_LARSEN,North
2019-11-20T00:00:00Z,1574208000,2019,0,0,324.0,324.0,61.418,-69.29,1022.6,-0.63,-999.0,yes,yes,no,300234065715140,BD2GHI,AOML,CCGS_HENRY_LARSEN,North
2019-11-20T01:00:02Z,1574211603,2019,1,0,324.0417,324.0417,61.409,-69.277,1022.9,-0.63,-999.0,yes,yes,no,300234065715140,BD2GHI,AOML,CCGS_HENRY_LARSEN,North
2019-11-20T01:59:57Z,1574215197,2019,2,0,324.0833,324.0833,61.402,-69.267,1023.1,-0.7,-999.0,yes,yes,no,300234065715140,BD2GHI,AOML,CCGS_HENRY_LARSEN,North
2019-11-20T03:00:00Z,1574218800,2019,3,0,324.125,324.125,61.395,-69.263,1022.9,-0.77,-999.0,yes,yes,no,300234065715140,BD2GHI,AOML,CCGS_HENRY_LARSEN,North
2019-11-20T04:00:02Z,1574222403,2019,4,0,324.1667,324.1667,61.389,-69.26,1022.8,-0.8,-999.0,yes,yes,no,300234065715140,BD2GHI,AOML,CCGS_HENRY_LARSEN,North
2019-11-20T04:59:57Z,1574225997,2019,5,0,324.2083,324.2083,61.387,-69.262,1022.9,-0.79,-999.0,yes,yes,no,300234065715140,BD2GHI,AOML,CCGS_HENRY_LARSEN,North
2019-11-20T06:00:00Z,1574229600,2019,6,0,324.25,324.25,61.386,-69.269,1023.2,-0.76,-999.0,yes,yes,no,300234065715140,BD2GHI,AOML,CCGS_HENRY_LARSEN,North
2019-11-20T07:00:02Z,1574233203,2019,7,0,324.2917,324.2917,61.387,-69.268,1023.6,-0.75,-999.0,yes,yes,no,300234065715140,BD2GHI,AOML,CCGS_HENRY_LARSEN,North
2019-11-20T07:59:57Z,1574236797,2019,8,0,324.3333,324.3333,61.386,-69.261,1023.9,-0.78,-999.0,yes,yes,no,300234065715140,BD2GHI,AOML,CCGS_HENRY_LARSEN,North
2019-11-20T09:00:00Z,1574240400,2019,9,0,324.375,324.375,61.384,-69.249,1024.2,-0.76,-999.0,yes,yes,no,300234065715140,BD2GHI,AOML,CCGS_HENRY_LARSEN,North
2019-11-20T10:00:02Z,1574244003,2019,10,0,324.4167,324.4167,61.379,-69.233,1024.7,-0.79,-999.0,yes,yes,no,300234065715140,BD2GHI,AOML,CCGS_HENRY_LARSEN,North
2019-11-20T10:59:57Z,1574247597,2019,11,0,324.4583,324.4583,61.371,-69.215,1025.1,-0.86,-999.0,yes,yes,no,300234065715140,BD2GHI,AOML,CCGS_HENRY_LARSEN,North
2019-11-20T12:00:00Z,1574251200,2019,12,0,324.5,324.5,61.362,-69.195,1025.2,-0.84,-999.0,yes,yes,no,300234065715140,BD2GHI,AOML,CCGS_HENRY_LARSEN,North
2019-11-20T13:00:02Z,1574254803,2019,13,0,324.5417,324.5417,61.356,-69.177,1025.0,-0.81,-999.0,yes,yes,no,300234065715140,BD2GHI,AOML,CCGS_HENRY_LARSEN,North
2019-11-20T13:59:57Z,1574258397,2019,14,0,324.5833,324.5833,61.347,-69.158,1025.1,-0.81,-999.0,yes,yes,no,300234065715140,BD2GHI,AOML,CCGS_HENRY_LARSEN,North
2019-11-20T15:00:00Z,1574262000,2019,15,0,324.625,324.625,61.339,-69.143,1024.2,-0.82,-999.0,yes,yes,no,300234065715140,BD2GHI,AOML,CCGS_HENRY_LARSEN,North
2019-11-20T16:00:02Z,1574265603,2019,16,0,324.6667,324.6667,61.331,-69.132,1023.6,-1.09,-999.0,yes,yes,no,300234065715140,BD2GHI,AOML,CCGS_HENRY_LARSEN,North
2019-11-20T16:59:57Z,1574269197,2019,17,0,324.7083,324.7083,61.324,-69.13,1022.8,-1.06,-999.0,yes,yes,no,300234065715140,BD2GHI,AOML,CCGS_HENRY_LARSEN,North
2019-11-20T18:00:00Z,1574272800,2019,18,0,324.75,324.75,61.32,-69.131,1022.7,-0.96,-999.0,yes,yes,no,300234065715140,BD2GHI,AOML,CCGS_HENRY_LARSEN,North
2019-11-20T19:00:02Z,1574276403,2019,19,0,324.7917,324.7917,61.318,-69.13,1023.2,-0.92,-999.0,yes,yes,no,300234065715140,BD2GHI,AOML,CCGS_HENRY_LARSEN,North
2019-11-20T19:59:57Z,1574279997,2019,20,0,324.8333,324.8333,61.316,-69.128,1022.4,-0.73,-999.0,yes,yes,no,300234065715140,BD2GHI,AOML,CCGS_HENRY_LARSEN,North
2019-11-20T21:00:00Z,1574283600,2019,21,0,324.875,324.875,61.315,-69.117,1022.2,-0.73,-999.0,yes,yes,no,300234065715140,BD2GHI,AOML,CCGS_HENRY_LARSEN,North
2019-11-20T22:00:02Z,1574287203,2019,22,0,324.9167,324.9167,61.312,-69.1,1021.8,-0.73,-999.0,yes,yes,no,300234065715140,BD2GHI,AOML,CCGS_HENRY_LARSEN,North
2019-11-20T22:59:57Z,1574290797,2019,23,0,324.9583,324.9583,61.306,-69.08,1022.1,-0.96,-999.0,yes,yes,no,300234065715140,BD2GHI,AOML,CCGS_HENRY_LARSEN,North
2019-11-21T00:00:00Z,1574294400,2019,0,0,325.0,325.0,61.3,-69.052,1021.7,-0.93,-999.0,yes,yes,no,300234065715140,BD2GHI,AOML,CCGS_HENRY_LARSEN,North
2019-11-21T01:00:02Z,1574298003,2019,1,0,325.0417,325.0417,61.293,-69.018,1021.4,-0.82,-999.0,yes,yes,no,300234065715140,BD2GHI,AOML,CCGS_HENRY_LARSEN,North
2019-11-21T01:59:57Z,1574301597,2019,2,0,325.0833,325.0833,61.283,-68.986,1020.9,-0.61,-999.0,yes,yes,no,300234065715140,BD2GHI,AOML,CCGS_HENRY_LARSEN,North
2019-11-21T03:00:00Z,1574305200,2019,3,0,325.125,325.125,61.272,-68.963,1020.3,-0.68,-999.0,yes,yes,no,300234065715140,BD2GHI,AOML,CCGS_HENRY_LARSEN,North
2019-11-21T04:00:02Z,1574308803,2019,4,0,325.1667,325.1667,61.263,-68.944,1019.3,-0.51,-999.0,yes,yes,no,300234065715140,BD2GHI,AOML,CCGS_HENRY_LARSEN,North
2019-11-21T04:59:57Z,1574312397,2019,5,0,325.2083,325.2083,61.253,-68.933,1018.3,-0.44,-999.0,yes,yes,no,300234065715140,BD2GHI,AOML,CCGS_HENRY_LARSEN,North
2019-11-21T06:00:00Z,1574316000,2019,6,0,325.25,325.25,61.244,-68.923,1017.1,-0.41,-999.0,yes,yes,no,300234065715140,BD2GHI,AOML,CCGS_HENRY_LARSEN,North
2019-11-21T07:00:02Z,1574319603,2019,7,0,325.2917,325.2917,61.238,-68.919,1016.1,-0.44,-999.0,yes,yes,no,300234065715140,BD2GHI,AOML,CCGS_HENRY_LARSEN,North
2019-11-21T07:59:57Z,1574323197,2019,8,0,325.3333,325.3333,61.231,-68.917,1015.3,-0.45,-999.0,yes,yes,no,300234065715140,BD2GHI,AOML,CCGS_HENRY_LARSEN,North
2019-11-21T09:00:00Z,1574326800,2019,9,0,325.375,325.375,61.229,-68.91,1014.9,-0.46,-999.0,yes,yes,no,300234065715140,BD2GHI,AOML,CCGS_HENRY_LARSEN,North
2019-11-21T10:00:02Z,1574330403,2019,10,0,325.4167,325.4167,61.227,-68.902,1014.3,-0.46,-999.0,yes,yes,no,300234065715140,BD2GHI,AOML,CCGS_HENRY_LARSEN,North
2019-11-21T10:59:57Z,1574333997,2019,11,0,325.4583,325.4583,61.227,-68.884,1013.7,-0.45,-999.0,yes,yes,no,300234065715140,BD2GHI,AOML,CCGS_HENRY_LARSEN,North
2019-11-21T12:00:00Z,1574337600,2019,12,0,325.5,325.5,61.223,-68.857,1013.3,-0.45,-999.0,yes,yes,no,300234065715140,BD2GHI,AOML,CCGS_HENRY_LARSEN,North
2019-11-21T13:00:02Z,1574341203,2019,13,0,325.5417,325.5417,61.22,-68.829,1012.7,-0.42,-999.0,yes,yes,no,300234065715140,BD2GHI,AOML,CCGS_HENRY_LARSEN,North
2019-11-21T13:59:57Z,1574344797,2019,14,0,325.5833,325.5833,61.214,-68.795,1012.2,-0.42,-999.0,yes,yes,no,300234065715140,BD2GHI,AOML,CCGS_HENRY_LARSEN,North
2019-11-21T15:00:00Z,1574348400,2019,15,0,325.625,325.625,61.206,-68.759,1011.6,-0.4,-999.0,yes,yes,no,300234065715140,BD2GHI,AOML,CCGS_HENRY_LARSEN,North
2019-11-21T16:00:02Z,1574352003,2019,16,0,325.6667,325.6667,61.197,-68.732,1010.4,-0.38,-999.0,yes,yes,no,300234065715140,BD2GHI,AOML,CCGS_HENRY_LARSEN,North
2019-11-21T16:59:57Z,1574355597,2019,17,0,325.7083,325.7083,61.186,-68.714,1009.3,-0.38,-999.0,yes,yes,no,300234065715140,BD2GHI,AOML,CCGS_HENRY_LARSEN,North
2019-11-21T18:00:00Z,1574359200,2019,18,0,325.75,325.75,61.178,-68.7,1008.6,-0.35,-999.0,yes,yes,no,300234065715140,BD2GHI,AOML,CCGS_HENRY_LARSEN,North
2019-11-21T19:00:02Z,1574362803,2019,19,0,325.7917,325.7917,61.165,-68.692,1007.8,-0.35,-999.0,yes,yes,no,300234065715140,BD2GHI,AOML,CCGS_HENRY_LARSEN,North
2019-11-21T19:59:57Z,1574366397,2019,20,0,325.8333,325.8333,61.154,-68.69,1007.2,-0.51,-999.0,yes,yes,no,300234065715140,BD2GHI,AOML,CCGS_HENRY_LARSEN,North
2019-11-21T21:00:00Z,1574370000,2019,21,0,325.875,325.875,61.146,-68.69,1006.7,-0.46,-999.0,yes,yes,no,300234065715140,BD2GHI,AOML,CCGS_HENRY_LARSEN,North
2019-11-21T22:01:03Z,1574373663,2019,22,1,325.9174,325.9174,61.139,-68.693,1006.3,-0.47,-999.0,yes,yes,no,300234065715140,BD2GHI,AOML,CCGS_HENRY_LARSEN,North
2019-11-21T22:59:57Z,1574377197,2019,23,0,325.9583,325.9583,61.133,-68.694,1005.7,-0.45,-999.0,yes,yes,no,300234065715140,BD2GHI,AOML,CCGS_HENRY_LARSEN,North
2019-11-22T00:00:00Z,1574380800,2019,0,0,326.0,326.0,61.131,-68.689,1005.3,-0.55,-999.0,yes,yes,no,300234065715140,BD2GHI,AOML,CCGS_HENRY_LARSEN,North
2019-11-22T01:00:02Z,1574384403,2019,1,0,326.0417,326.0417,61.131,-68.679,1004.5,-0.69,-999.0,yes,yes,no,300234065715140,BD2GHI,AOML,CCGS_HENRY_LARSEN,North
2019-11-22T01:59:57Z,1574387997,2019,2,0,326.0833,326.0833,61.129,-68.667,1003.7,-0.76,-999.0,yes,yes,no,300234065715140,BD2GHI,AOML,CCGS_HENRY_LARSEN,North
2019-11-22T03:03:01Z,1574391781,2019,3,3,326.1271,326.1271,61.124,-68.65,1002.8,-0.7,-999.0,yes,yes,no,300234065715140,BD2GHI,AOML,CCGS_HENRY_LARSEN,North
2019-11-22T04:00:02Z,1574395203,2019,4,0,326.1667,326.1667,61.119,-68.631,1001.8,-0.65,-999.0,yes,yes,no,300234065715140,BD2GHI,AOML,CCGS_HENRY_LARSEN,North
2019-11-22T04:59:57Z,1574398797,2019,5,0,326.2083,326.2083,61.11,-68.612,1001.0,-0.63,-999.0,yes,yes,no,300234065715140,BD2GHI,AOML,CCGS_HENRY_LARSEN,North
2019-11-22T06:00:00Z,1574402400,2019,6,0,326.25,326.25,61.096,-68.601,999.9,-0.63,-999.0,yes,yes,no,300234065715140,BD2GHI,AOML,CCGS_HENRY_LARSEN,North
2019-11-22T07:00:02Z,1574406003,2019,7,0,326.2917,326.2917,61.081,-68.593,999.0,-0.61,-999.0,yes,yes,no,300234065715140,BD2GHI,AOML,CCGS_HENRY_LARSEN,North
2019-11-22T07:59:57Z,1574409597,2019,8,0,326.3333,326.3333,61.066,-68.596,997.9,-0.55,-999.0,yes,yes,no,300234065715140,BD2GHI,AOML,CCGS_HENRY_LARSEN,North
2019-11-22T09:00:00Z,1574413200,2019,9,0,326.375,326.375,61.053,-68.611,997.3,-0.57,-999.0,yes,yes,no,300234065715140,BD2GHI,AOML,CCGS_HENRY_LARSEN,North
2019-11-22T10:00:02Z,1574416803,2019,10,0,326.4167,326.4167,61.044,-68.631,996.6,-0.57,-999.0,yes,yes,no,300234065715140,BD2GHI,AOML,CCGS_HENRY_LARSEN,North
2019-11-22T10:59:57Z,1574420397,2019,11,0,326.4583,326.4583,61.04,-68.643,995.9,-0.55,-999.0,yes,yes,no,300234065715140,BD2GHI,AOML,CCGS_HENRY_LARSEN,North
2019-11-22T12:00:00Z,1574424000,2019,12,0,326.5,326.5,61.037,-68.646,995.5,-0.58,-999.0,yes,yes,no,300234065715140,BD2GHI,AOML,CCGS_HENRY_LARSEN,North
2019-11-22T13:00:02Z,1574427603,2019,13,0,326.5417,326.5417,61.034,-68.646,994.8,-0.56,-999.0,yes,yes,no,300234065715140,BD2GHI,AOML,CCGS_HENRY_LARSEN,North
2019-11-22T14:00:57Z,1574431258,2019,14,1,326.584,326.584,61.029,-68.645,994.2,-0.58,-999.0,yes,yes,no,300234065715140,BD2GHI,AOML,CCGS_HENRY_LARSEN,North
2019-11-22T15:00:00Z,1574434800,2019,15,0,326.625,326.625,61.021,-68.643,993.7,-0.63,-999.0,yes,yes,no,300234065715140,BD2GHI,AOML,CCGS_HENRY_LARSEN,North
2019-11-22T16:00:02Z,1574438403,2019,16,0,326.6667,326.6667,61.009,-68.636,993.0,-0.5,-999.0,yes,yes,no,300234065715140,BD2GHI,AOML,CCGS_HENRY_LARSEN,North
2019-11-22T16:59:57Z,1574441997,2019,17,0,326.7083,326.7083,60.995,-68.632,992.3,-0.38,-999.0,yes,yes,no,300234065715140,BD2GHI,AOML,CCGS_HENRY_LARSEN,North
2019-11-22T18:00:00Z,1574445600,2019,18,0,326.75,326.75,60.978,-68.633,991.7,-0.35,-999.0,yes,yes,no,300234065715140,BD2GHI,AOML,CCGS_HENRY_LARSEN,North
2019-11-22T19:00:02Z,1574449203,2019,19,0,326.7917,326.7917,60.959,-68.644,991.4,-0.26,-999.0,yes,yes,no,300234065715140,BD2GHI,AOML,CCGS_HENRY_LARSEN,North
2019-11-22T19:59:57Z,1574452797,2019,20,0,326.8333,326.8333,60.946,-68.661,991.2,-0.24,-999.0,yes,yes,no,300234065715140,BD2GHI,AOML,CCGS_HENRY_LARSEN,North
2019-11-22T21:00:00Z,1574456400,2019,21,0,326.875,326.875,60.935,-68.682,991.1,-0.34,-999.0,yes,yes,no,300234065715140,BD2GHI,AOML,CCGS_HENRY_LARSEN,North
2019-11-22T22:00:02Z,1574460003,2019,22,0,326.9167,326.9167,60.928,-68.704,991.0,-0.35,-999.0,yes,yes,no,300234065715140,BD2GHI,AOML,CCGS_HENRY_LARSEN,North
2019-11-22T22:59:57Z,1574463597,2019,23,0,326.9583,326.9583,60.925,-68.718,991.2,-0.37,-999.0,yes,yes,no,300234065715140,BD2GHI,AOML,CCGS_HENRY_LARSEN,North
2019-11-23T00:00:00Z,1574467200,2019,0,0,327.0,327.0,60.924,-68.726,991.2,-0.33,-999.0,yes,yes,no,300234065715140,BD2GHI,AOML,CCGS_HENRY_LARSEN,North
2019-11-23T01:00:02Z,1574470803,2019,1,0,327.0417,327.0417,60.922,-68.727,991.1,-0.37,-999.0,yes,yes,no,300234065715140,BD2GHI,AOML,CCGS_HENRY_LARSEN,North
2019-11-23T01:59:57Z,1574474397,2019,2,0,327.0833,327.0833,60.918,-68.722,991.2,-0.41,-999.0,yes,yes,no,300234065715140,BD2GHI,AOML,CCGS_HENRY_LARSEN,North
2019-11-23T03:00:00Z,1574478000,2019,3,0,327.125,327.125,60.91,-68.716,991.2,-0.48,-999.0,yes,yes,no,300234065715140,BD2GHI,AOML,CCGS_HENRY_LARSEN,North
2019-11-23T04:00:02Z,1574481603,2019,4,0,327.1667,327.1667,60.899,-68.709,991.4,-0.47,-999.0,yes,yes,no,300234065715140,BD2GHI,AOML,CCGS_HENRY_LARSEN,North
2019-11-23T04:59:57Z,1574485197,2019,5,0,327.2083,327.2083,60.879,-68.701,991.5,-0.44,-999.0,yes,yes,no,300234065715140,BD2GHI,AOML,CCGS_HENRY_LARSEN,North
2019-11-23T06:00:00Z,1574488800,2019,6,0,327.25,327.25,60.853,-68.703,991.5,-0.36,-999.0,yes,yes,no,300234065715140,BD2GHI,AOML,CCGS_HENRY_LARSEN,North
2019-11-23T07:00:02Z,1574492403,2019,7,0,327.2917,327.2917,60.83,-68.716,991.9,-0.36,-999.0,yes,yes,no,300234065715140,BD2GHI,AOML,CCGS_HENRY_LARSEN,North
2019-11-23T07:59:57Z,1574495997,2019,8,0,327.3333,327.3333,60.811,-68.737,992.2,-0.38,-999.0,yes,yes,no,300234065715140,BD2GHI,AOML,CCGS_HENRY_LARSEN,North
2019-11-23T09:00:00Z,1574499600,2019,9,0,327.375,327.375,60.797,-68.759,992.5,-0.41,-999.0,yes,yes,no,300234065715140,BD2GHI,AOML,CCGS_HENRY_LARSEN,North
2019-11-23T10:00:02Z,1574503203,2019,10,0,327.4167,327.4167,60.788,-68.771,993.1,-0.31,-999.0,yes,yes,no,300234065715140,BD2GHI,AOML,CCGS_HENRY_LARSEN,North
2019-11-23T10:59:57Z,1574506797,2019,11,0,327.4583,327.4583,60.784,-68.772,993.4,-0.38,-999.0,yes,yes,no,300234065715140,BD2GHI,AOML,CCGS_HENRY_LARSEN,North
2019-11-23T12:00:00Z,1574510400,2019,12,0,327.5,327.5,60.785,-68.763,994.2,-0.38,-999.0,yes,yes,no,300234065715140,BD2GHI,AOML,CCGS_HENRY_LARSEN,North
2019-11-23T13:00:02Z,1574514003,2019,13,0,327.5417,327.5417,60.788,-68.751,994.7,-0.4,-999.0,yes,yes,no,300234065715140,BD2GHI,AOML,CCGS_HENRY_LARSEN,North
2019-11-23T13:59:57Z,1574517597,2019,14,0,327.5833,327.5833,60.793,-68.734,995.6,-0.4,-999.0,yes,yes,no,300234065715140,BD2GHI,AOML,CCGS_HENRY_LARSEN,North
2019-11-23T15:00:00Z,1574521200,2019,15,0,327.625,327.625,60.795,-68.714,996.5,-0.4,-999.0,yes,yes,no,300234065715140,BD2GHI,AOML,CCGS_HENRY_LARSEN,North
2019-11-23T16:00:02Z,1574524803,2019,16,0,327.6667,327.6667,60.791,-68.688,997.3,-0.4,-999.0,yes,yes,no,300234065715140,BD2GHI,AOML,CCGS_HENRY_LARSEN,North
2019-11-23T16:59:57Z,1574528397,2019,17,0,327.7083,327.7083,60.781,-68.67,997.8,-0.41,-999.0,yes,yes,no,300234065715140,BD2GHI,AOML,CCGS_HENRY_LARSEN,North
2019-11-23T18:00:00Z,1574532000,2019,18,0,327.75,327.75,60.761,-68.659,998.0,-0.38,-999.0,yes,yes,no,300234065715140,BD2GHI,AOML,CCGS_HENRY_LARSEN,North
2019-11-23T19:00:02Z,1574535603,2019,19,0,327.7917,327.7917,60.74,-68.654,998.5,-0.39,-999.0,yes,yes,no,300234065715140,BD2GHI,AOML,CCGS_HENRY_LARSEN,North
2019-11-23T19:59:57Z,1574539197,2019,20,0,327.8333,327.8333,60.718,-68.657,998.8,-0.4,-999.0,yes,yes,no,300234065715140,BD2GHI,AOML,CCGS_HENRY_LARSEN,North
2019-11-23T21:00:00Z,1574542800,2019,21,0,327.875,327.875,60.697,-68.67,999.3,-0.42,-999.0,yes,yes,no,300234065715140,BD2GHI,AOML,CCGS_HENRY_LARSEN,North
2019-11-23T22:00:02Z,1574546403,2019,22,0,327.9167,327.9167,60.685,-68.677,1000.0,-0.45,-999.0,yes,yes,no,300234065715140,BD2GHI,AOML,CCGS_HENRY_LARSEN,North
2019-11-23T22:59:57Z,1574549997,2019,23,0,327.9583,327.9583,60.682,-68.673,1000.1,-0.47,-999.0,yes,yes,no,300234065715140,BD2GHI,AOML,CCGS_HENRY_LARSEN,North
2019-11-24T00:00:00Z,1574553600,2019,0,0,328.0,328.0,60.694,-68.671,1000.3,-0.46,-999.0,yes,yes,no,300234065715140,BD2GHI,AOML,CCGS_HENRY_LARSEN,North
2019-11-24T01:00:02Z,1574557203,2019,1,0,328.0417,328.0417,60.708,-68.656,1000.6,-0.48,-999.0,yes,yes,no,300234065715140,BD2GHI,AOML,CCGS_HENRY_LARSEN,North
2019-11-24T01:59:57Z,1574560797,2019,2,0,328.0833,328.0833,60.727,-68.622,1000.7,-0.49,-999.0,yes,yes,no,300234065715140,BD2GHI,AOML,CCGS_HENRY_LARSEN,North
2019-11-24T03:00:00Z,1574564400,2019,3,0,328.125,328.125,60.741,-68.577,1000.9,-0.49,-999.0,yes,yes,no,300234065715140,BD2GHI,AOML,CCGS_HENRY_LARSEN,North
2019-11-24T04:01:03Z,1574568063,2019,4,1,328.1674,328.1674,60.749,-68.528,1000.7,-0.52,-999.0,yes,yes,no,300234065715140,BD2GHI,AOML,CCGS_HENRY_LARSEN,North
2019-11-24T04:59:57Z,1574571597,2019,5,0,328.2083,328.2083,60.746,-68.478,1000.5,-0.52,-999.0,yes,yes,no,300234065715140,BD2GHI,AOML,CCGS_HENRY_LARSEN,North
2019-11-24T06:00:00Z,1574575200,2019,6,0,328.25,328.25,60.732,-68.434,1000.3,-0.52,-999.0,yes,yes,no,300234065715140,BD2GHI,AOML,CCGS_HENRY_LARSEN,North
2019-11-24T07:00:02Z,1574578803,2019,7,0,328.2917,328.2917,60.711,-68.409,1000.1,-0.56,-999.0,yes,yes,no,300234065715140,BD2GHI,AOML,CCGS_HENRY_LARSEN,North
2019-11-24T07:59:57Z,1574582397,2019,8,0,328.3333,328.3333,60.697,-68.42,999.4,-0.51,-999.0,yes,yes,no,300234065715140,BD2GHI,AOML,CCGS_HENRY_LARSEN,North
2019-11-24T09:00:00Z,1574586000,2019,9,0,328.375,328.375,60.686,-68.436,998.9,-0.5,-999.0,yes,yes,no,300234065715140,BD2GHI,AOML,CCGS_HENRY_LARSEN,North
2019-11-24T10:00:02Z,1574589603,2019,10,0,328.4167,328.4167,60.682,-68.448,998.2,-0.51,-999.0,yes,yes,no,300234065715140,BD2GHI,AOML,CCGS_HENRY_LARSEN,North
2019-11-24T10:59:57Z,1574593197,2019,11,0,328.4583,328.4583,60.684,-68.448,997.7,-0.54,-999.0,yes,yes,no,300234065715140,BD2GHI,AOML,CCGS_HENRY_LARSEN,North
2019-11-24T12:00:00Z,1574596800,2019,12,0,328.5,328.5,60.696,-68.433,997.4,-0.56,-999.0,yes,yes,no,300234065715140,BD2GHI,AOML,CCGS_HENRY_LARSEN,North
2019-11-24T13:00:02Z,1574600403,2019,13,0,328.5417,328.5417,60.72,-68.401,997.3,-0.62,-999.0,yes,yes,no,300234065715140,BD2GHI,AOML,CCGS_HENRY_LARSEN,North
2019-11-24T13:59:57Z,1574603997,2019,14,0,328.5833,328.5833,60.748,-68.348,997.5,-0.62,-999.0,yes,yes,no,300234065715140,BD2GHI,AOML,CCGS_HENRY_LARSEN,North